sat.trackr.live / text

‹ back to catalog

STARLINK-31616

NORAD 59270 · 2024-050S

PAYLOAD ACTIVE UNKNOWN

§ Identity

Operator
Country
US
Launch date
2024-03-19
Launch site
AFWTR
Launch vehicle
Mass (kg)
RCS (m²)

Purposes: comms

External: N2YO · Heavens-Above · Gunter

§ Orbital elements

Epoch: 2026-09-20T13:37:12.644544Z

Period
93.85 min
Inclination
53.1609°
Eccentricity
0.0001257
Mean motion
15.34395213 rev/d
Perigee alt
461.9 km
Apogee alt
463.6 km
Semi-major
6,840.9 km
B*
3.2660e-5
RAAN
353.0811°
Arg perigee
93.4964°
Mean anomaly
266.6183°
Rev number
14,042

§ Raw data

STARLINK-316161 59270U 24050S   26263.56750746  .00000727  00000+0  32660-4 0  99992 59270  53.1609 353.0811 0001257  93.4964 266.6183 15.34395213140429

JSON: /api/v1/satellites/59270 · /tle

For live sub-satellite position, see the globe view (requires WebGL).

§ Visibility from observer

Set your observer location to see the next 7 days of passes ≥ 10°. The values pass through the URL so the page stays shareable.

No JS? Fill the form by hand. The geolocation button needs JavaScript.